Theta_e
349 343 342 340 329 324 323 322 322 323 323 322 322 321 321 323 328 331 333 330 330 329 328 327 327 327 327 328 328 328 328 328 327 324 323 330 333 334 334 333 343 349 337
350 342 342 337 326 325 324 323 322 322 322 321 323 336 330 331 331 330 329 329 328 327 327 327 327 327 327 327 327 327 326 326 326 327 328 327 337 333 335 337 336 339 335
348 345 342 328 327 327 325 323 322 322 322 325 334 335 333 330 329 328 327 326 324 322 321 320 320 320 321 323 325 326 327 327 326 326 331 336 339 336 330 335 335 340 338
347 345 336 328 329 329 325 322 322 322 331 336 336 332 330 329 327 323 319 317 317 318 318 318 317 317 317 317 317 318 320 323 325 325 333 334 333 336 336 325 336 341 339
345 344 334 331 331 329 324 322 323 333 331 335 331 330 328 323 317 317 319 319 319 319 318 317 315 314 314 314 314 314 314 315 317 331 332 333 333 341 338 333 333 345 341
344 345 331 332 332 328 323 323 337 332 335 331 330 327 321 317 319 319 319 319 319 318 315 313 312 311 311 311 311 311 311 311 328 332 331 334 341 339 332 335 332 338 339
342 347 333 333 332 326 322 331 331 331 331 331 326 320 317 319 319 319 319 319 318 314 312 310 310 310 310 310 310 310 310 316 327 330 337 343 339 330 336 339 338 338 339
341 343 336 333 332 324 323 334 331 332 331 326 320 318 318 319 319 319 319 318 315 311 310 310 310 310 310 310 310 310 311 330 333 331 340 339 334 334 338 340 340 339 339
340 342 343 339 330 323 341 327 332 332 328 323 319 318 319 320 319 319 319 316 313 310 309 310 310 310 310 310 309 312 324 329 331 332 337 333 332 333 336 338 338 339 338
339 341 341 342 338 341 329 332 332 332 328 325 321 320 321 324 325 321 323 314 311 310 310 310 310 316 320 314 313 324 328 329 329 335 334 328 327 331 334 335 336 336 336
339 339 340 339 339 340 342 333 332 332 330 327 323 321 330 333 331 329 317 313 311 311 311 311 316 323 326 327 325 327 328 328 333 333 331 327 324 323 324 325 325 325 326
338 339 340 338 338 341 342 337 338 336 336 338 334 331 332 330 326 322 323 322 316 322 323 322 321 322 325 326 327 327 327 332 331 331 328 324 326 328 327 328 328 329 329
338 339 340 339 339 341 340 339 338 338 337 337 334 333 329 328 328 327 326 326 326 324 326 324 323 322 324 325 325 326 327 331 327 331 327 328 329 328 328 328 328 328 328
338 340 340 340 341 342 340 338 338 337 336 336 335 329 327 329 328 325 324 324 324 324 325 324 324 322 322 321 322 322 323 327 329 327 326 325 327 328 328 328 328 326 325
338 341 341 342 342 343 341 339 338 337 336 336 334 332 330 329 325 327 323 324 323 323 324 325 324 323 322 321 321 321 321 322 324 327 325 320 323 325 326 326 325 324 323
339 342 341 341 342 342 341 341 339 337 335 335 333 333 328 328 326 326 325 323 323 323 323 324 325 323 322 322 322 321 321 321 321 322 326 323 319 317 321 321 322 321 320
340 342 343 340 342 343 342 341 339 337 335 335 335 335 324 322 322 320 324 322 321 322 317 323 324 323 323 322 322 321 320 321 320 320 319 324 324 319 315 317 318 317 317
340 342 342 339 341 341 341 339 338 335 333 333 335 335 328 322 319 321 321 320 320 321 322 323 325 324 323 323 323 321 320 320 320 318 318 317 318 319 313 309 308 306 308
344 343 340 339 342 343 335 332 333 333 334 335 335 334 330 324 318 318 320 319 312 320 320 321 321 324 324 323 323 323 322 320 320 319 318 318 317 317 316 315 313 313 311
348 347 343 341 342 335 331 330 333 333 334 335 334 332 333 325 319 315 320 313 316 318 320 320 320 319 321 322 322 323 323 321 320 320 319 318 317 316 316 315 315 314 313
349 350 348 343 341 337 332 333 333 332 332 334 334 334 332 325 320 314 319 317 315 319 321 318 319 317 316 317 321 323 322 321 320 321 319 319 318 317 316 315 315 314 314
349 351 348 346 342 341 335 332 333 333 332 332 334 333 332 330 319 316 313 316 313 317 319 319 318 320 316 315 320 323 324 323 323 321 320 319 318 317 316 316 315 315 315
349 349 350 349 343 342 339 334 334 329 329 330 333 333 329 329 325 314 311 313 311 314 318 318 317 317 317 315 316 323 323 322 323 322 320 318 318 315 316 316 316 313 313
347 349 347 348 343 341 339 336 332 329 330 330 331 331 330 329 329 316 312 308 306 316 316 315 316 316 310 315 315 315 320 320 318 318 318 317 316 315 314 314 314 313 313
346 346 343 338 340 339 338 334 332 331 332 332 331 330 330 329 329 317 312 311 308 312 312 313 312 306 314 316 315 316 316 315 314 314 313 315 315 313 313 313 313 313 313
343 340 341 340 341 340 339 334 332 332 333 333 331 330 330 329 328 317 312 309 310 312 306 309 308 310 315 313 314 313 313 313 314 313 313 313 313 314 314 314 314 313 313
Wind_Speed
15 14 13 11 11 10 9 8 7 7 7 7 7 6 6 6 5 4 4 5 6 6 6 7 7 8 8 7 7 6 6 6 5 4 4 4 5 4 3 2 5 6 5
17 14 13 11 11 10 10 9 8 7 6 7 7 7 5 5 4 5 5 6 6 7 8 7 7 7 8 8 8 8 8 8 8 7 6 4 6 8 7 5 2 4 3
15 15 14 13 11 10 9 8 8 7 7 7 6 4 3 3 3 3 5 5 6 7 7 8 9 9 8 8 9 9 9 9 8 8 10 9 7 13 11 8 8 6 5
15 15 14 14 12 9 9 8 8 8 8 6 4 2 1 2 3 4 5 5 6 7 7 8 9 9 9 9 9 8 8 8 7 8 9 6 5 9 11 8 5 6 5
15 17 15 13 11 10 9 9 8 8 6 4 2 1 1 3 4 5 6 7 8 9 9 9 8 8 8 8 8 8 8 7 8 10 8 6 6 9 10 10 6 7 3
16 15 16 13 10 9 9 9 8 7 5 3 2 1 4 4 5 7 8 9 10 11 12 12 11 11 10 8 8 7 6 5 10 7 6 7 6 10 10 6 6 7 7
16 13 15 13 10 9 9 9 8 7 4 2 2 4 3 4 5 7 8 9 10 11 12 12 11 10 9 8 8 8 7 10 9 7 6 3 7 12 8 6 4 5 6
15 12 13 13 10 9 10 9 8 5 2 2 3 2 2 4 5 7 8 10 12 13 12 11 10 9 9 8 8 10 11 12 11 5 7 10 8 8 6 5 3 3 5
15 13 12 11 11 11 11 9 6 4 2 2 2 2 4 6 7 8 9 11 12 12 11 11 11 10 12 11 11 14 17 15 13 5 10 11 8 7 6 5 5 5 6
15 13 12 12 11 10 9 9 6 4 2 1 1 3 6 6 8 9 12 12 11 11 11 11 12 13 18 19 15 16 17 14 9 9 12 7 8 7 6 5 4 5 6
14 13 13 10 10 11 8 9 6 4 2 0 1 3 9 5 8 6 6 9 10 11 12 14 15 19 16 17 19 19 16 10 8 12 12 7 8 9 9 7 6 6 7
15 14 13 12 11 13 8 5 5 4 2 3 0 2 4 3 4 3 10 12 11 12 15 15 17 18 12 6 8 13 9 8 10 11 12 9 10 9 9 8 9 9 8
15 14 12 14 13 12 9 6 5 3 3 2 1 3 4 1 3 5 10 12 12 13 8 9 7 8 9 7 9 9 9 8 6 11 12 10 12 11 10 11 11 9 8
16 15 14 14 14 12 9 8 5 4 3 2 2 2 4 4 4 1 2 3 3 2 2 3 4 7 8 10 9 9 8 9 7 7 10 7 10 12 13 12 11 9 6
18 18 17 14 13 12 10 7 6 4 3 2 2 2 0 0 4 2 3 1 1 1 2 2 1 4 6 7 8 9 9 9 8 6 7 8 7 10 12 15 14 12 9
18 19 17 15 14 13 10 9 6 6 3 2 0 4 2 1 3 3 3 2 3 2 1 0 1 2 3 5 7 8 9 8 8 8 6 9 12 7 6 6 9 10 11
18 19 19 19 16 14 12 8 5 2 3 6 6 7 4 1 4 2 4 2 3 4 4 2 2 1 1 2 5 6 7 8 7 9 7 6 9 12 8 5 6 9 12
18 21 21 19 19 19 16 12 9 11 12 13 11 12 5 5 3 2 4 5 6 3 2 3 2 2 2 2 1 2 4 5 6 7 7 6 5 7 9 13 11 9 11
19 22 23 23 22 20 22 18 12 11 19 16 12 7 9 6 4 1 3 6 5 4 3 4 4 4 5 3 3 0 1 2 3 1 4 4 5 3 4 9 14 13 16
18 18 19 19 21 23 18 12 10 16 18 16 10 3 8 5 6 3 5 5 1 5 4 4 6 5 6 6 4 2 2 1 2 2 1 1 2 2 2 2 7 10 12
19 19 20 20 29 24 20 16 18 18 19 22 16 9 4 5 8 6 3 6 1 5 5 9 3 4 3 5 6 5 6 7 6 5 3 3 4 3 4 4 3 4 9
19 18 18 23 25 24 22 17 16 17 19 24 21 15 12 4 8 6 5 5 7 6 6 6 6 5 5 6 8 10 9 8 9 5 5 6 7 7 6 6 7 6 7
18 17 17 20 21 19 17 19 15 18 18 18 22 21 15 8 8 9 8 6 8 7 7 6 4 6 5 6 10 7 7 5 6 9 6 4 8 7 7 8 7 8 8
12 15 17 19 13 13 16 17 16 15 17 14 17 18 14 18 11 11 9 6 5 6 9 4 6 6 7 5 7 9 11 8 6 8 5 6 5 6 5 6 7 7 8
9 12 16 11 9 12 12 13 12 11 9 10 14 12 12 19 18 12 10 8 7 5 9 11 9 7 4 5 6 6 7 6 7 8 13 5 3 5 5 7 8 9 7
4 5 5 6 9 12 14 13 10 9 12 10 17 15 16 16 16 16 12 9 8 8 7 4 6 5 5 9 6 8 7 7 7 7 10 9 6 9 6 8 8 9 10
Wind_Direction
142 155 157 154 143 134 129 128 126 122 118 109 107 103 100 101 96 83 64 37 28 19 14 9 359 354 349 351 345 339 336 333 331 329 320 326 336 328 331 54 74 36 341
134 154 156 155 142 134 134 132 130 122 120 118 113 108 107 85 58 38 23 11 8 4 5 354 347 345 336 334 332 331 333 335 343 347 347 350 341 326 301 303 314 323 326
138 151 155 154 144 139 134 132 130 129 128 127 124 115 93 60 28 23 17 19 15 9 359 351 346 338 332 325 321 322 322 326 336 354 22 21 294 313 303 278 288 297 325
139 146 158 154 147 141 140 135 134 135 135 140 129 109 49 30 24 38 34 25 14 3 357 348 341 333 328 323 320 317 315 321 336 5 33 335 335 298 304 290 286 304 314
149 148 162 154 149 146 140 138 141 145 149 151 149 128 74 68 59 45 30 11 7 0 356 348 343 339 333 327 326 326 331 344 24 41 360 318 334 308 293 294 292 306 270
148 155 156 153 149 144 142 144 151 157 165 178 175 127 88 69 42 25 14 8 7 1 358 355 351 348 348 345 337 330 346 34 58 351 341 340 297 291 305 319 290 281 271
145 162 162 157 153 150 154 150 163 162 176 175 131 100 74 42 24 14 9 8 8 6 2 359 0 0 358 354 351 352 27 75 65 24 32 80 350 329 348 352 320 288 270
152 155 168 162 160 160 159 164 165 163 159 129 107 91 31 17 14 12 10 8 10 10 10 11 16 15 13 10 11 31 74 76 38 55 60 18 344 351 354 359 353 320 294
156 159 156 159 169 167 159 169 164 162 158 118 92 24 7 10 6 9 14 13 12 12 16 23 29 33 35 30 39 72 87 75 57 73 44 20 26 355 336 335 326 311 306
159 163 160 169 160 154 170 170 175 170 140 118 83 31 14 17 11 21 28 9 11 15 26 35 44 53 49 41 62 83 66 54 63 45 39 353 10 18 27 20 356 338 330
164 163 164 167 160 157 172 179 182 171 173 303 2 33 58 34 27 12 353 4 13 24 37 46 60 55 38 32 50 61 59 64 67 46 32 29 2 349 356 359 357 348 342
167 168 169 164 164 162 172 194 163 142 57 91 129 54 61 205 207 287 355 10 27 41 33 38 46 48 37 25 21 44 64 67 50 44 46 47 48 51 46 36 32 32 18
168 170 171 170 168 172 178 156 177 191 194 214 179 77 228 12 351 16 334 0 354 14 15 22 35 51 67 64 52 65 68 69 52 56 61 74 66 56 58 57 57 61 63
173 175 170 175 172 167 183 162 190 192 167 82 227 18 340 25 349 318 258 317 16 295 39 37 17 66 72 68 68 69 71 70 68 62 64 67 71 69 67 62 59 56 43
178 180 175 176 170 174 166 175 168 198 145 199 37 290 248 316 286 343 297 294 280 310 340 52 55 88 63 71 74 72 68 77 86 62 59 40 48 68 73 75 71 61 36
180 182 177 173 175 176 170 175 177 160 193 156 140 297 351 72 305 314 334 313 306 295 241 119 206 82 76 62 69 75 78 76 84 90 68 38 28 22 42 54 58 45 26
180 180 178 172 177 178 172 177 162 182 197 240 266 273 281 298 312 160 291 306 272 260 217 200 173 146 124 73 77 74 62 70 72 82 83 60 33 14 3 29 35 34 45
177 178 177 176 183 182 177 174 175 219 254 273 271 300 269 284 290 360 305 281 263 254 236 220 214 230 222 209 143 92 71 72 70 64 79 85 81 19 22 30 21 32 41
182 180 183 182 181 176 200 213 227 250 253 256 253 273 278 280 274 242 287 285 282 250 228 230 228 223 251 232 234 159 121 64 86 71 63 60 61 77 17 2 10 10 9
188 189 184 183 185 210 220 214 246 261 257 254 239 189 307 277 273 266 275 275 262 251 233 217 212 242 231 252 246 210 222 251 291 295 353 359 4 39 13 22 347 339 359
193 191 190 182 204 216 213 220 234 254 264 256 244 219 218 241 275 281 255 309 300 243 215 236 231 268 246 254 237 256 261 253 243 243 268 273 287 300 306 312 337 312 336
200 202 200 205 221 224 222 229 234 264 269 254 241 230 222 235 258 271 242 242 236 248 231 211 208 215 260 257 238 262 257 236 239 235 234 277 281 280 286 286 290 301 313
206 211 204 216 217 226 226 232 243 269 278 258 241 230 182 230 277 262 275 215 252 179 261 219 222 221 245 260 246 269 286 291 196 201 238 254 268 281 273 285 287 292 298
197 199 209 219 221 237 228 227 265 271 275 267 235 224 220 235 263 264 271 253 220 216 226 232 225 195 233 267 266 252 261 289 310 292 240 255 289 285 284 298 287 302 308
185 222 237 225 224 221 231 238 286 268 256 278 215 248 233 224 241 251 251 238 236 173 233 200 223 197 238 246 251 262 266 269 283 271 291 246 270 271 291 303 297 305 306
157 175 172 195 216 234 233 244 275 258 251 245 237 229 221 230 232 234 236 238 232 221 243 222 213 224 197 217 226 246 257 271 276 271 275 277 288 283 264 307 304 308 299